Hourly Weather Roundup
Issued by NWS Central Illinois

Home | Current Version | Previous Version | Text Only | Print | Product List | Glossary On
Versions: 1 2 3 4 5 6 7 8 9 10 11 12 13 14 15 16 17 18 19 20 21 22 23 24 25 26 27 28 29 30 31 32 33 34 35 36 37 38 39 40 41 42 43 44 45 46 47 48 49 50
000
NZUS43 KILX 240910
HWRILX

AREA WEATHER ROUNDUP
NATIONAL WEATHER SERVICE, LINCOLN IL
400 AM CDT SUN MAY 24 2015


CITY           SKY/WX    TMP DP  RH WIND       PRES   REMARKS
BLOOMINGTON    CLOUDY    65  52  62 SE6       30.18F
CHAMPAIGN      CLOUDY    64  52  64 SE6       30.18F
DANVILLE       CLOUDY    62  50  64 SE3       30.17F
DECATUR        CLOUDY    65  51  60 SE6       30.16F
EFFINGHAM      CLOUDY    61  51  67 E5        30.18F
FLORA          MOCLDY    63  51  65 E3        30.17S
GALESBURG      CLOUDY    64  53  66 E3        30.14S
JACKSONVILLE   CLOUDY    68  53  59 SE7       30.11F
LACON          CLOUDY    59  55  88 E3        30.17F
LAWRENCEVILLE    N/A     60  52  74 E7        30.18F
LITCHFIELD     CLOUDY    64  50  60 SE9       30.13F
$$


CITY           SKY/WX    TMP DP  RH WIND       PRES   REMARKS
LINCOLN        CLOUDY    66  52  60 CALM      30.13F
MACOMB         CLOUDY    66  53  63 E3        30.15S
MATTOON        CLOUDY    62  50  64 SE5       30.17F
MT CARMEL AP   MOCLDY    63  50  63 E6        30.17F
OLNEY-NOBLE AP CLOUDY    61  52  72 E5        30.18S
PARIS          CLOUDY    64  51  62 SE5       30.20F
PEORIA         CLOUDY    68  50  52 E6        30.15F
PONTIAC        LGT RAIN  65  55  70 CALM      30.19S
RANTOUL        CLOUDY    65  53  63 E6        30.18F
ROBINSON       CLOUDY    61  53  73 SE5       30.19F
SPRINGFIELD    CLOUDY    68  51  54 SE6       30.13F
TAYLORVILLE    CLOUDY    64  50  59 SE8       30.14F
$$

...REGIONAL REPORTS...


CITY           SKY/WX    TMP DP  RH WIND       PRES   REMARKS
CHICAGO O`HARE MOCLDY    61  48  62 SE3       30.19S
KANKAKEE       CLOUDY    60  51  72 E5        30.20S
MOLINE         CLOUDY    64  51  62 SE7       30.14R
MOUNT VERNON   CLOUDY    64  50  59 E5        30.16S
PITTSFIELD     CLOUDY    65  55  71 CALM      30.11F
QUINCY         LGT RAIN  61  57  87 NE5       30.10F
ROCKFORD       CLOUDY    63  48  58 CALM      30.19F
$$


CITY           SKY/WX    TMP DP  RH WIND       PRES   REMARKS
BURLINGTON     CLOUDY    67  52  58 S9        30.12S
CEDAR RAPIDS   LGT RAIN  65  52  62 S15G23    30.11S
DES MOINES     LGT RAIN  62  58  86 SE9       30.01F
KIRKSVILLE     RAIN      60  59  96 SE7       30.06F FOG
OTTUMWA        LGT RAIN  59  58  96 SE9       30.06F
ST LOUIS       CLOUDY    66  54  65 E7        30.10F
$$


CITY           SKY/WX    TMP DP  RH WIND       PRES   REMARKS
TERRE HAUTE    CLOUDY    62  52  69 CALM      30.20S
EVANSVILLE     CLOUDY    64  51  62 CALM      30.18F
INDIANAPOLIS   MOCLDY    61  47  59 SE9       30.21S
LAFAYETTE      MOCLDY    58  50  75 CALM      30.21R
MADISON        MOCLDY    55  47  74 CALM      30.18R
MILWAUKEE      PTCLDY    60  43  53 SW8       30.20R
$$




USA.gov is the U.S. government's official web portal to all federal, state and local government web resources and services.